User: anonymous   Login
Location: Fort Wayne
(41.1310°N, 85.1290°W)
Time: 19:10:59
(UTC-05:00)
Language:

Meteor 2-10 Rocket - Orbit

View from above orbital plane
View from above orbital plane
View from above satellite
View from above satellite

Ground track
Ground track

The orbit data is extracted from the following two-line orbital elements,

1 14453U 83109B   16341.95343994 +.00000056 +00000-0 +18181-4 0  9993
2 14453 081.1664 299.6798 0103869 259.7871 099.1581 14.24662089720083
Epoch (UTC): 06 December 2016 22:52:57
Eccentricity: 0.0103869
inclination: 81.1664°
perigee height: 735 km
apogee height: 884 km
right ascension of ascending node: 299.6798°
argument of perigee: 259.7871°
revolutions per day: 14.24662089
mean anomaly at epoch: 99.1581°
orbit number at epoch: 72008

The dashed part of the orbit path shows where the satellite is in the earth's shadow,  

DLR